Location: Bakov nad Jizerou
(50.4784°N, 14.9394°E)
Time: 23:33:55
(UTC+00:00)

Cosmos 2360 Rocket - Pass Details

Date: 16 June 2021
Orbit: 835 x 843 km, 71.0° (Epoch: 23 July)

Event Time Altitude Azimuth Distance (km) Brightness Sun altitude
Rises 19:59:55 0° 181° (S) 3,382 4.9 -6.0°
Reaches altitude 10° 20:02:30 10° 173° (S) 2,451 4.1 -6.3°
Maximum altitude 20:07:37 37° 107° (ESE) 1,281 2.8 -6.8°
Drops below altitude 10° 20:12:45 10° 42° (NE) 2,462 4.8 -7.3°
Sets 20:15:20 0° 35° (NE) 3,400 5.6 -7.6°
